This demonstration page uses our WeatherBlox Daily Observations layout. Learn more.

Left ArrowRight Arrow

36.17497, -115.13722

Hourly Observations for January 5, 2019

Temp ( °F °C ) Dew Point ( °F °C ) Humidity (%) Winds ( mph kmh ) Pressure ( in mb ) Visibility ( mi km ) Precip ( " mm )
12:53 am 00:53 Clear 36 2.2 18 -7.8 48 48 Calm 30.11 1020 10 16.0934 0 0
1:53 am 01:53 Clear 35 1.7 19 -7.2 52 52 N 3 6 30.11 1020 10 16.0934 0 0
2:53 am 02:53 Clear 36 2.2 19 -7.2 50 50 WNW 3 6 30.1 1019 10 16.0934 0 0
3:53 am 03:53 Clear 36 2.2 18 -7.8 48 48 E 3 6 30.08 1019 10 16.0934 0 0
4:53 am 04:53 Clear 35 1.7 19 -7.2 52 52 Calm 30.08 1019 10 16.0934 0 0
5:53 am 05:53 Clear 35 1.7 18 -7.8 50 50 Calm 30.07 1018 10 16.0934 0 0
6:53 am 06:53 Sunny 35 1.7 19 -7.2 52 52 WNW 3 6 30.09 1019 10 16.0934 0 0
7:53 am 07:53 Sunny 39 3.9 19 -7.2 45 45 Calm 30.1 1019 10 16.0934 0 0
8:53 am 08:53 Sunny 41 5 18 -7.8 39 39 S 3 6 30.11 1020 10 16.0934 0 0
9:53 am 09:53 Sunny 43 6.1 18 -7.8 37 37 Calm 30.11 1020 10 16.0934 0 0
10:53 am 10:53 Sunny 46 7.8 19 -7.2 34 34 SSE 3 6 30.07 1018 10 16.0934 0 0
11:53 am 11:53 Sunny 48 8.9 19 -7.2 32 32 SSE 8 13 30.06 1018 10 16.0934 0 0
12:53 pm 12:53 Sunny 48 8.9 18 -7.8 30 30 SE 6 9 30.05 1018 10 16.0934 0 0
1:53 pm 13:53 Cloudy 49 9.4 18 -7.8 29 29 SE 5 7 30.04 1017 10 16.0934 0 0
2:53 pm 14:53 Cloudy 49 9.4 18 -7.8 29 29 SSE 3 6 30.04 1017 10 16.0934 0 0
3:53 pm 15:53 Cloudy 48 8.9 19 -7.2 32 32 Calm 30.03 1017 10 16.0934 0 0
4:53 pm 16:53 Cloudy 47 8.3 20 -6.7 34 34 Calm 30.03 1017 10 16.0934 0 0
5:53 pm 17:53 Cloudy 46 7.8 20 -6.7 35 35 Calm 30.03 1017 10 16.0934 0 0
6:53 pm 18:53 Cloudy 45 7.2 22 -5.6 40 40 S 7 11 30.05 1018 10 16.0934 0 0
7:53 pm 19:53 Cloudy with Light Rain 41 5 34 1.1 76 76 E 8 13 30.05 1018 10 16.0934 0.01 0.254
8:53 pm 20:53 Cloudy with Light Rain 41 5 37 2.8 86 86 NE 6 9 30.05 1018 10 16.0934 0.02 0.508
9:53 pm 21:53 Cloudy with Light Rain 41 5 38 3.3 89 89 NW 3 6 30.04 1017 6 9.65604 0.09 2.286
10:53 pm 22:53 Cloudy with Light Rain 40 4.4 38 3.3 93 93 SSE 5 7 30.02 1017 10 16.0934 0.04 1.016
11:17 pm 23:17 Cloudy with Light Rain 40 4.4 38 3.3 93 93 SSE 5 7 30 1016 10 16.0934 0.01 0.254
11:41 pm 23:41 Cloudy with Light Rain 40 4.4 39 3.9 97 97 Calm 30 1016 7 11.26538 0.01 0.254
11:53 pm 23:53 Cloudy with Light Rain 40 4.4 40 4.4 100 100 Calm 30 1016 9 14.48406 0.01 0.254

Powered by AerisWeather